Tracking 22093 objects as of 18-Jan-2021
HD Live streaming from Space Station
objects crossing your sky now

OPS 1948

Track OPS 1948 now!
OPS 1948 is classified as:


NORAD ID: 11558
Int'l Code: 1979-086A
Perigee: 30,471.1 km
Apogee: 41,134.3 km
Inclination: 5.9 °
Period: 1,436.6 minutes
Semi major axis: 42173 km
RCS: Unknown
Launch date: October 1, 1979
Source: United States (US)
Launch site: AIR FORCE EASTERN TEST RANGE (AFETR)
aabbcc
Your satellite tracking list
Your tracking list is empty




NASA's NSSDC Master Catalog

Two Line Element Set (TLE):
1 11558U 79086A   21017.71670024 -.00000091  00000-0  00000-0 0  9999
2 11558   5.9007 355.0548 1264197  59.4582 132.8688  1.00239799  6402
Source of the keplerian elements: McCants